﻿Date Hour Ending, MW ,,,,,,,,,,,,,,,,,
07/01/2019 1:00,225,,,,,,,,,,,,,,,,,
07/01/2019 2:00,183,,,,,,,,,,,,,,,,,
07/01/2019 3:00,181,,,,,,,,,,,,,,,,,
07/01/2019 4:00,158,,,,,,,,,,,,,,,,,
07/01/2019 5:00,158,,,,,,,,,,,,,,,,,
07/01/2019 6:00,134,,,,,,,,,,,,,,,,,
07/01/2019 7:00,154,,,,,,,,,,,,,,,,,
07/01/2019 8:00,209,,,,,,,,,,,,,,,,,
07/01/2019 9:00,256,,,,,,,,,,,,,,,,,
07/01/2019 10:00,296,,,,,,,,,,,,,,,,,
07/01/2019 11:00,312,,,,,,,,,,,,,,,,,
07/01/2019 12:00,334,,,,,,,,,,,,,,,,,
07/01/2019 13:00,327,,,,,,,,,,,,,,,,,
07/01/2019 14:00,324,,,,,,,,,,,,,,,,,
07/01/2019 15:00,324,,,,,,,,,,,,,,,,,
07/01/2019 16:00,321,,,,,,,,,,,,,,,,,
07/01/2019 17:00,312,,,,,,,,,,,,,,,,,
07/01/2019 18:00,313,,,,,,,,,,,,,,,,,
07/01/2019 19:00,294,,,,,,,,,,,,,,,,,
07/01/2019 20:00,277,,,,,,,,,,,,,,,,,
07/01/2019 21:00,292,,,,,,,,,,,,,,,,,
07/01/2019 22:00,301,,,,,,,,,,,,,,,,,
07/01/2019 23:00,266,,,,,,,,,,,,,,,,,
07/02/2019 0:00,197,,,,,,,,,,,,,,,,,
07/02/2019 1:00,178,,,,,,,,,,,,,,,,,
07/02/2019 2:00,172,,,,,,,,,,,,,,,,,
07/02/2019 3:00,164,,,,,,,,,,,,,,,,,
07/02/2019 4:00,144,,,,,,,,,,,,,,,,,
07/02/2019 5:00,164,,,,,,,,,,,,,,,,,
07/02/2019 6:00,219,,,,,,,,,,,,,,,,,
07/02/2019 7:00,325,,,,,,,,,,,,,,,,,
07/02/2019 8:00,411,,,,,,,,,,,,,,,,,
07/02/2019 9:00,437,,,,,,,,,,,,,,,,,
07/02/2019 10:00,452,,,,,,,,,,,,,,,,,
07/02/2019 11:00,440,,,,,,,,,,,,,,,,,
07/02/2019 12:00,451,,,,,,,,,,,,,,,,,
07/02/2019 13:00,496,,,,,,,,,,,,,,,,,
07/02/2019 14:00,503,,,,,,,,,,,,,,,,,
07/02/2019 15:00,495,,,,,,,,,,,,,,,,,
07/02/2019 16:00,496,,,,,,,,,,,,,,,,,
07/02/2019 17:00,490,,,,,,,,,,,,,,,,,
07/02/2019 18:00,491,,,,,,,,,,,,,,,,,
07/02/2019 19:00,476,,,,,,,,,,,,,,,,,
07/02/2019 20:00,460,,,,,,,,,,,,,,,,,
07/02/2019 21:00,511,,,,,,,,,,,,,,,,,
07/02/2019 22:00,513,,,,,,,,,,,,,,,,,
07/02/2019 23:00,447,,,,,,,,,,,,,,,,,
07/03/2019 0:00,376,,,,,,,,,,,,,,,,,
07/03/2019 1:00,337,,,,,,,,,,,,,,,,,
07/03/2019 2:00,300,,,,,,,,,,,,,,,,,
07/03/2019 3:00,314,,,,,,,,,,,,,,,,,
07/03/2019 4:00,317,,,,,,,,,,,,,,,,,
07/03/2019 5:00,321,,,,,,,,,,,,,,,,,
07/03/2019 6:00,313,,,,,,,,,,,,,,,,,
07/03/2019 7:00,343,,,,,,,,,,,,,,,,,
07/03/2019 8:00,381,,,,,,,,,,,,,,,,,
07/03/2019 9:00,406,,,,,,,,,,,,,,,,,
07/03/2019 10:00,446,,,,,,,,,,,,,,,,,
07/03/2019 11:00,488,,,,,,,,,,,,,,,,,
07/03/2019 12:00,495,,,,,,,,,,,,,,,,,
07/03/2019 13:00,500,,,,,,,,,,,,,,,,,
07/03/2019 14:00,497,,,,,,,,,,,,,,,,,
07/03/2019 15:00,508,,,,,,,,,,,,,,,,,
07/03/2019 16:00,487,,,,,,,,,,,,,,,,,
07/03/2019 17:00,474,,,,,,,,,,,,,,,,,
07/03/2019 18:00,494,,,,,,,,,,,,,,,,,
07/03/2019 19:00,482,,,,,,,,,,,,,,,,,
07/03/2019 20:00,472,,,,,,,,,,,,,,,,,
07/03/2019 21:00,477,,,,,,,,,,,,,,,,,
07/03/2019 22:00,480,,,,,,,,,,,,,,,,,
07/03/2019 23:00,448,,,,,,,,,,,,,,,,,
07/04/2019 0:00,382,,,,,,,,,,,,,,,,,
07/04/2019 1:00,334,,,,,,,,,,,,,,,,,
07/04/2019 2:00,302,,,,,,,,,,,,,,,,,
07/04/2019 3:00,291,,,,,,,,,,,,,,,,,
07/04/2019 4:00,267,,,,,,,,,,,,,,,,,
07/04/2019 5:00,253,,,,,,,,,,,,,,,,,
07/04/2019 6:00,262,,,,,,,,,,,,,,,,,
07/04/2019 7:00,276,,,,,,,,,,,,,,,,,
07/04/2019 8:00,331,,,,,,,,,,,,,,,,,
07/04/2019 9:00,417,,,,,,,,,,,,,,,,,
07/04/2019 10:00,460,,,,,,,,,,,,,,,,,
07/04/2019 11:00,465,,,,,,,,,,,,,,,,,
07/04/2019 12:00,500,,,,,,,,,,,,,,,,,
07/04/2019 13:00,494,,,,,,,,,,,,,,,,,
07/04/2019 14:00,488,,,,,,,,,,,,,,,,,
07/04/2019 15:00,480,,,,,,,,,,,,,,,,,
07/04/2019 16:00,481,,,,,,,,,,,,,,,,,
07/04/2019 17:00,481,,,,,,,,,,,,,,,,,
07/04/2019 18:00,470,,,,,,,,,,,,,,,,,
07/04/2019 19:00,492,,,,,,,,,,,,,,,,,
07/04/2019 20:00,519,,,,,,,,,,,,,,,,,
07/04/2019 21:00,522,,,,,,,,,,,,,,,,,
07/04/2019 22:00,489,,,,,,,,,,,,,,,,,
07/04/2019 23:00,443,,,,,,,,,,,,,,,,,
07/05/2019 0:00,364,,,,,,,,,,,,,,,,,
07/05/2019 1:00,299,,,,,,,,,,,,,,,,,
07/05/2019 2:00,269,,,,,,,,,,,,,,,,,
07/05/2019 3:00,263,,,,,,,,,,,,,,,,,
07/05/2019 4:00,226,,,,,,,,,,,,,,,,,
07/05/2019 5:00,222,,,,,,,,,,,,,,,,,
07/05/2019 6:00,225,,,,,,,,,,,,,,,,,
07/05/2019 7:00,270,,,,,,,,,,,,,,,,,
07/05/2019 8:00,333,,,,,,,,,,,,,,,,,
07/05/2019 9:00,447,,,,,,,,,,,,,,,,,
07/05/2019 10:00,499,,,,,,,,,,,,,,,,,
07/05/2019 11:00,583,,,,,,,,,,,,,,,,,
07/05/2019 12:00,592,,,,,,,,,,,,,,,,,
07/05/2019 13:00,533,,,,,,,,,,,,,,,,,
07/05/2019 14:00,543,,,,,,,,,,,,,,,,,
07/05/2019 15:00,561,,,,,,,,,,,,,,,,,
07/05/2019 16:00,532,,,,,,,,,,,,,,,,,
07/05/2019 17:00,507,,,,,,,,,,,,,,,,,
07/05/2019 18:00,499,,,,,,,,,,,,,,,,,
07/05/2019 19:00,479,,,,,,,,,,,,,,,,,
07/05/2019 20:00,483,,,,,,,,,,,,,,,,,
07/05/2019 21:00,479,,,,,,,,,,,,,,,,,
07/05/2019 22:00,470,,,,,,,,,,,,,,,,,
07/05/2019 23:00,428,,,,,,,,,,,,,,,,,
07/06/2019 0:00,368,,,,,,,,,,,,,,,,,
07/06/2019 1:00,310,,,,,,,,,,,,,,,,,
07/06/2019 2:00,229,,,,,,,,,,,,,,,,,
07/06/2019 3:00,233,,,,,,,,,,,,,,,,,
07/06/2019 4:00,230,,,,,,,,,,,,,,,,,
07/06/2019 5:00,225,,,,,,,,,,,,,,,,,
07/06/2019 6:00,229,,,,,,,,,,,,,,,,,
07/06/2019 7:00,231,,,,,,,,,,,,,,,,,
07/06/2019 8:00,292,,,,,,,,,,,,,,,,,
07/06/2019 9:00,316,,,,,,,,,,,,,,,,,
07/06/2019 10:00,407,,,,,,,,,,,,,,,,,
07/06/2019 11:00,412,,,,,,,,,,,,,,,,,
07/06/2019 12:00,427,,,,,,,,,,,,,,,,,
07/06/2019 13:00,401,,,,,,,,,,,,,,,,,
07/06/2019 14:00,402,,,,,,,,,,,,,,,,,
07/06/2019 15:00,370,,,,,,,,,,,,,,,,,
07/06/2019 16:00,345,,,,,,,,,,,,,,,,,
07/06/2019 17:00,338,,,,,,,,,,,,,,,,,
07/06/2019 18:00,361,,,,,,,,,,,,,,,,,
07/06/2019 19:00,336,,,,,,,,,,,,,,,,,
07/06/2019 20:00,329,,,,,,,,,,,,,,,,,
07/06/2019 21:00,346,,,,,,,,,,,,,,,,,
07/06/2019 22:00,359,,,,,,,,,,,,,,,,,
07/06/2019 23:00,326,,,,,,,,,,,,,,,,,
07/07/2019 0:00,284,,,,,,,,,,,,,,,,,
07/07/2019 1:00,236,,,,,,,,,,,,,,,,,
07/07/2019 2:00,244,,,,,,,,,,,,,,,,,
07/07/2019 3:00,298,,,,,,,,,,,,,,,,,
07/07/2019 4:00,280,,,,,,,,,,,,,,,,,
07/07/2019 5:00,253,,,,,,,,,,,,,,,,,
07/07/2019 6:00,235,,,,,,,,,,,,,,,,,
07/07/2019 7:00,268,,,,,,,,,,,,,,,,,
07/07/2019 8:00,272,,,,,,,,,,,,,,,,,
07/07/2019 9:00,295,,,,,,,,,,,,,,,,,
07/07/2019 10:00,389,,,,,,,,,,,,,,,,,
07/07/2019 11:00,399,,,,,,,,,,,,,,,,,
07/07/2019 12:00,425,,,,,,,,,,,,,,,,,
07/07/2019 13:00,429,,,,,,,,,,,,,,,,,
07/07/2019 14:00,427,,,,,,,,,,,,,,,,,
07/07/2019 15:00,431,,,,,,,,,,,,,,,,,
07/07/2019 16:00,436,,,,,,,,,,,,,,,,,
07/07/2019 17:00,426,,,,,,,,,,,,,,,,,
07/07/2019 18:00,437,,,,,,,,,,,,,,,,,
07/07/2019 19:00,452,,,,,,,,,,,,,,,,,
07/07/2019 20:00,427,,,,,,,,,,,,,,,,,
07/07/2019 21:00,418,,,,,,,,,,,,,,,,,
07/07/2019 22:00,416,,,,,,,,,,,,,,,,,
07/07/2019 23:00,403,,,,,,,,,,,,,,,,,
07/08/2019 0:00,382,,,,,,,,,,,,,,,,,
07/08/2019 1:00,328,,,,,,,,,,,,,,,,,
07/08/2019 2:00,285,,,,,,,,,,,,,,,,,
07/08/2019 3:00,286,,,,,,,,,,,,,,,,,
07/08/2019 4:00,305,,,,,,,,,,,,,,,,,
07/08/2019 5:00,320,,,,,,,,,,,,,,,,,
07/08/2019 6:00,320,,,,,,,,,,,,,,,,,
07/08/2019 7:00,389,,,,,,,,,,,,,,,,,
07/08/2019 8:00,450,,,,,,,,,,,,,,,,,
07/08/2019 9:00,485,,,,,,,,,,,,,,,,,
07/08/2019 10:00,501,,,,,,,,,,,,,,,,,
07/08/2019 11:00,504,,,,,,,,,,,,,,,,,
07/08/2019 12:00,563,,,,,,,,,,,,,,,,,
07/08/2019 13:00,577,,,,,,,,,,,,,,,,,
07/08/2019 14:00,538,,,,,,,,,,,,,,,,,
07/08/2019 15:00,538,,,,,,,,,,,,,,,,,
07/08/2019 16:00,550,,,,,,,,,,,,,,,,,
07/08/2019 17:00,555,,,,,,,,,,,,,,,,,
07/08/2019 18:00,559,,,,,,,,,,,,,,,,,
07/08/2019 19:00,567,,,,,,,,,,,,,,,,,
07/08/2019 20:00,517,,,,,,,,,,,,,,,,,
07/08/2019 21:00,511,,,,,,,,,,,,,,,,,
07/08/2019 22:00,432,,,,,,,,,,,,,,,,,
07/08/2019 23:00,347,,,,,,,,,,,,,,,,,
07/09/2019 0:00,273,,,,,,,,,,,,,,,,,
07/09/2019 1:00,174,,,,,,,,,,,,,,,,,
07/09/2019 2:00,144,,,,,,,,,,,,,,,,,
07/09/2019 3:00,195,,,,,,,,,,,,,,,,,
07/09/2019 4:00,204,,,,,,,,,,,,,,,,,
07/09/2019 5:00,256,,,,,,,,,,,,,,,,,
07/09/2019 6:00,240,,,,,,,,,,,,,,,,,
07/09/2019 7:00,239,,,,,,,,,,,,,,,,,
07/09/2019 8:00,284,,,,,,,,,,,,,,,,,
07/09/2019 9:00,382,,,,,,,,,,,,,,,,,
07/09/2019 10:00,429,,,,,,,,,,,,,,,,,
07/09/2019 11:00,427,,,,,,,,,,,,,,,,,
07/09/2019 12:00,465,,,,,,,,,,,,,,,,,
07/09/2019 13:00,475,,,,,,,,,,,,,,,,,
07/09/2019 14:00,462,,,,,,,,,,,,,,,,,
07/09/2019 15:00,475,,,,,,,,,,,,,,,,,
07/09/2019 16:00,487,,,,,,,,,,,,,,,,,
07/09/2019 17:00,454,,,,,,,,,,,,,,,,,
07/09/2019 18:00,428,,,,,,,,,,,,,,,,,
07/09/2019 19:00,451,,,,,,,,,,,,,,,,,
07/09/2019 20:00,458,,,,,,,,,,,,,,,,,
07/09/2019 21:00,447,,,,,,,,,,,,,,,,,
07/09/2019 22:00,431,,,,,,,,,,,,,,,,,
07/09/2019 23:00,441,,,,,,,,,,,,,,,,,
07/10/2019 0:00,429,,,,,,,,,,,,,,,,,
07/10/2019 1:00,387,,,,,,,,,,,,,,,,,
07/10/2019 2:00,341,,,,,,,,,,,,,,,,,
07/10/2019 3:00,319,,,,,,,,,,,,,,,,,
07/10/2019 4:00,325,,,,,,,,,,,,,,,,,
07/10/2019 5:00,303,,,,,,,,,,,,,,,,,
07/10/2019 6:00,290,,,,,,,,,,,,,,,,,
07/10/2019 7:00,328,,,,,,,,,,,,,,,,,
07/10/2019 8:00,392,,,,,,,,,,,,,,,,,
07/10/2019 9:00,440,,,,,,,,,,,,,,,,,
07/10/2019 10:00,482,,,,,,,,,,,,,,,,,
07/10/2019 11:00,501,,,,,,,,,,,,,,,,,
07/10/2019 12:00,499,,,,,,,,,,,,,,,,,
07/10/2019 13:00,489,,,,,,,,,,,,,,,,,
07/10/2019 14:00,488,,,,,,,,,,,,,,,,,
07/10/2019 15:00,498,,,,,,,,,,,,,,,,,
07/10/2019 16:00,482,,,,,,,,,,,,,,,,,
07/10/2019 17:00,459,,,,,,,,,,,,,,,,,
07/10/2019 18:00,469,,,,,,,,,,,,,,,,,
07/10/2019 19:00,457,,,,,,,,,,,,,,,,,
07/10/2019 20:00,455,,,,,,,,,,,,,,,,,
07/10/2019 21:00,437,,,,,,,,,,,,,,,,,
07/10/2019 22:00,418,,,,,,,,,,,,,,,,,
07/10/2019 23:00,390,,,,,,,,,,,,,,,,,
07/11/2019 0:00,335,,,,,,,,,,,,,,,,,
07/11/2019 1:00,281,,,,,,,,,,,,,,,,,
07/11/2019 2:00,263,,,,,,,,,,,,,,,,,
07/11/2019 3:00,272,,,,,,,,,,,,,,,,,
07/11/2019 4:00,296,,,,,,,,,,,,,,,,,
07/11/2019 5:00,297,,,,,,,,,,,,,,,,,
07/11/2019 6:00,313,,,,,,,,,,,,,,,,,
07/11/2019 7:00,356,,,,,,,,,,,,,,,,,
07/11/2019 8:00,440,,,,,,,,,,,,,,,,,
07/11/2019 9:00,471,,,,,,,,,,,,,,,,,
07/11/2019 10:00,488,,,,,,,,,,,,,,,,,
07/11/2019 11:00,504,,,,,,,,,,,,,,,,,
07/11/2019 12:00,497,,,,,,,,,,,,,,,,,
07/11/2019 13:00,485,,,,,,,,,,,,,,,,,
07/11/2019 14:00,481,,,,,,,,,,,,,,,,,
07/11/2019 15:00,466,,,,,,,,,,,,,,,,,
07/11/2019 16:00,464,,,,,,,,,,,,,,,,,
07/11/2019 17:00,456,,,,,,,,,,,,,,,,,
07/11/2019 18:00,459,,,,,,,,,,,,,,,,,
07/11/2019 19:00,469,,,,,,,,,,,,,,,,,
07/11/2019 20:00,441,,,,,,,,,,,,,,,,,
07/11/2019 21:00,400,,,,,,,,,,,,,,,,,
07/11/2019 22:00,375,,,,,,,,,,,,,,,,,
07/11/2019 23:00,330,,,,,,,,,,,,,,,,,
07/12/2019 0:00,271,,,,,,,,,,,,,,,,,
07/12/2019 1:00,245,,,,,,,,,,,,,,,,,
07/12/2019 2:00,263,,,,,,,,,,,,,,,,,
07/12/2019 3:00,266,,,,,,,,,,,,,,,,,
07/12/2019 4:00,250,,,,,,,,,,,,,,,,,
07/12/2019 5:00,249,,,,,,,,,,,,,,,,,
07/12/2019 6:00,273,,,,,,,,,,,,,,,,,
07/12/2019 7:00,289,,,,,,,,,,,,,,,,,
07/12/2019 8:00,303,,,,,,,,,,,,,,,,,
07/12/2019 9:00,317,,,,,,,,,,,,,,,,,
07/12/2019 10:00,331,,,,,,,,,,,,,,,,,
07/12/2019 11:00,345,,,,,,,,,,,,,,,,,
07/12/2019 12:00,359,,,,,,,,,,,,,,,,,
07/12/2019 13:00,373,,,,,,,,,,,,,,,,,
07/12/2019 14:00,388,,,,,,,,,,,,,,,,,
07/12/2019 15:00,402,,,,,,,,,,,,,,,,,
07/12/2019 16:00,409,,,,,,,,,,,,,,,,,
07/12/2019 17:00,409,,,,,,,,,,,,,,,,,
07/12/2019 18:00,422,,,,,,,,,,,,,,,,,
07/12/2019 19:00,398,,,,,,,,,,,,,,,,,
07/12/2019 20:00,377,,,,,,,,,,,,,,,,,
07/12/2019 21:00,356,,,,,,,,,,,,,,,,,
07/12/2019 22:00,383,,,,,,,,,,,,,,,,,
07/12/2019 23:00,346,,,,,,,,,,,,,,,,,
07/13/2019 0:00,332,,,,,,,,,,,,,,,,,
07/13/2019 1:00,304,,,,,,,,,,,,,,,,,
07/13/2019 2:00,290,,,,,,,,,,,,,,,,,
07/13/2019 3:00,287,,,,,,,,,,,,,,,,,
07/13/2019 4:00,307,,,,,,,,,,,,,,,,,
07/13/2019 5:00,323,,,,,,,,,,,,,,,,,
07/13/2019 6:00,324,,,,,,,,,,,,,,,,,
07/13/2019 7:00,360,,,,,,,,,,,,,,,,,
07/13/2019 8:00,417,,,,,,,,,,,,,,,,,
07/13/2019 9:00,472,,,,,,,,,,,,,,,,,
07/13/2019 10:00,522,,,,,,,,,,,,,,,,,
07/13/2019 11:00,557,,,,,,,,,,,,,,,,,
07/13/2019 12:00,567,,,,,,,,,,,,,,,,,
07/13/2019 13:00,567,,,,,,,,,,,,,,,,,
07/13/2019 14:00,534,,,,,,,,,,,,,,,,,
07/13/2019 15:00,544,,,,,,,,,,,,,,,,,
07/13/2019 16:00,539,,,,,,,,,,,,,,,,,
07/13/2019 17:00,552,,,,,,,,,,,,,,,,,
07/13/2019 18:00,563,,,,,,,,,,,,,,,,,
07/13/2019 19:00,548,,,,,,,,,,,,,,,,,
07/13/2019 20:00,530,,,,,,,,,,,,,,,,,
07/13/2019 21:00,508,,,,,,,,,,,,,,,,,
07/13/2019 22:00,492,,,,,,,,,,,,,,,,,
07/13/2019 23:00,454,,,,,,,,,,,,,,,,,
07/14/2019 0:00,414,,,,,,,,,,,,,,,,,
07/14/2019 1:00,355,,,,,,,,,,,,,,,,,
07/14/2019 2:00,353,,,,,,,,,,,,,,,,,
07/14/2019 3:00,338,,,,,,,,,,,,,,,,,
07/14/2019 4:00,322,,,,,,,,,,,,,,,,,
07/14/2019 5:00,315,,,,,,,,,,,,,,,,,
07/14/2019 6:00,315,,,,,,,,,,,,,,,,,
07/14/2019 7:00,301,,,,,,,,,,,,,,,,,
07/14/2019 8:00,321,,,,,,,,,,,,,,,,,
07/14/2019 9:00,371,,,,,,,,,,,,,,,,,
07/14/2019 10:00,444,,,,,,,,,,,,,,,,,
07/14/2019 11:00,466,,,,,,,,,,,,,,,,,
07/14/2019 12:00,485,,,,,,,,,,,,,,,,,
07/14/2019 13:00,516,,,,,,,,,,,,,,,,,
07/14/2019 14:00,500,,,,,,,,,,,,,,,,,
07/14/2019 15:00,497,,,,,,,,,,,,,,,,,
07/14/2019 16:00,507,,,,,,,,,,,,,,,,,
07/14/2019 17:00,540,,,,,,,,,,,,,,,,,
07/14/2019 18:00,560,,,,,,,,,,,,,,,,,
07/14/2019 19:00,555,,,,,,,,,,,,,,,,,
07/14/2019 20:00,553,,,,,,,,,,,,,,,,,
07/14/2019 21:00,537,,,,,,,,,,,,,,,,,
07/14/2019 22:00,512,,,,,,,,,,,,,,,,,
07/14/2019 23:00,467,,,,,,,,,,,,,,,,,
07/15/2019 0:00,390,,,,,,,,,,,,,,,,,
07/15/2019 1:00,337,,,,,,,,,,,,,,,,,
07/15/2019 2:00,299,,,,,,,,,,,,,,,,,
07/15/2019 3:00,278,,,,,,,,,,,,,,,,,
07/15/2019 4:00,261,,,,,,,,,,,,,,,,,
07/15/2019 5:00,290,,,,,,,,,,,,,,,,,
07/15/2019 6:00,331,,,,,,,,,,,,,,,,,
07/15/2019 7:00,361,,,,,,,,,,,,,,,,,
07/15/2019 8:00,408,,,,,,,,,,,,,,,,,
07/15/2019 9:00,482,,,,,,,,,,,,,,,,,
07/15/2019 10:00,481,,,,,,,,,,,,,,,,,
07/15/2019 11:00,477,,,,,,,,,,,,,,,,,
07/15/2019 12:00,458,,,,,,,,,,,,,,,,,
07/15/2019 13:00,474,,,,,,,,,,,,,,,,,
07/15/2019 14:00,490,,,,,,,,,,,,,,,,,
07/15/2019 15:00,500,,,,,,,,,,,,,,,,,
07/15/2019 16:00,511,,,,,,,,,,,,,,,,,
07/15/2019 17:00,508,,,,,,,,,,,,,,,,,
07/15/2019 18:00,501,,,,,,,,,,,,,,,,,
07/15/2019 19:00,469,,,,,,,,,,,,,,,,,
07/15/2019 20:00,461,,,,,,,,,,,,,,,,,
07/15/2019 21:00,459,,,,,,,,,,,,,,,,,
07/15/2019 22:00,475,,,,,,,,,,,,,,,,,
07/15/2019 23:00,418,,,,,,,,,,,,,,,,,
07/16/2019 0:00,355,,,,,,,,,,,,,,,,,
07/16/2019 1:00,322,,,,,,,,,,,,,,,,,
07/16/2019 2:00,267,,,,,,,,,,,,,,,,,
07/16/2019 3:00,255,,,,,,,,,,,,,,,,,
07/16/2019 4:00,227,,,,,,,,,,,,,,,,,
07/16/2019 5:00,214,,,,,,,,,,,,,,,,,
07/16/2019 6:00,221,,,,,,,,,,,,,,,,,
07/16/2019 7:00,307,,,,,,,,,,,,,,,,,
07/16/2019 8:00,418,,,,,,,,,,,,,,,,,
07/16/2019 9:00,522,,,,,,,,,,,,,,,,,
07/16/2019 10:00,528,,,,,,,,,,,,,,,,,
07/16/2019 11:00,512,,,,,,,,,,,,,,,,,
07/16/2019 12:00,529,,,,,,,,,,,,,,,,,
07/16/2019 13:00,516,,,,,,,,,,,,,,,,,
07/16/2019 14:00,504,,,,,,,,,,,,,,,,,
07/16/2019 15:00,487,,,,,,,,,,,,,,,,,
07/16/2019 16:00,465,,,,,,,,,,,,,,,,,
07/16/2019 17:00,487,,,,,,,,,,,,,,,,,
07/16/2019 18:00,478,,,,,,,,,,,,,,,,,
07/16/2019 19:00,479,,,,,,,,,,,,,,,,,
07/16/2019 20:00,491,,,,,,,,,,,,,,,,,
07/16/2019 21:00,491,,,,,,,,,,,,,,,,,
07/16/2019 22:00,458,,,,,,,,,,,,,,,,,
07/16/2019 23:00,403,,,,,,,,,,,,,,,,,
07/17/2019 0:00,350,,,,,,,,,,,,,,,,,
07/17/2019 1:00,274,,,,,,,,,,,,,,,,,
07/17/2019 2:00,233,,,,,,,,,,,,,,,,,
07/17/2019 3:00,215,,,,,,,,,,,,,,,,,
07/17/2019 4:00,216,,,,,,,,,,,,,,,,,
07/17/2019 5:00,219,,,,,,,,,,,,,,,,,
07/17/2019 6:00,235,,,,,,,,,,,,,,,,,
07/17/2019 7:00,309,,,,,,,,,,,,,,,,,
07/17/2019 8:00,380,,,,,,,,,,,,,,,,,
07/17/2019 9:00,458,,,,,,,,,,,,,,,,,
07/17/2019 10:00,504,,,,,,,,,,,,,,,,,
07/17/2019 11:00,501,,,,,,,,,,,,,,,,,
07/17/2019 12:00,507,,,,,,,,,,,,,,,,,
07/17/2019 13:00,502,,,,,,,,,,,,,,,,,
07/17/2019 14:00,481,,,,,,,,,,,,,,,,,
07/17/2019 15:00,465,,,,,,,,,,,,,,,,,
07/17/2019 16:00,469,,,,,,,,,,,,,,,,,
07/17/2019 17:00,443,,,,,,,,,,,,,,,,,
07/17/2019 18:00,426,,,,,,,,,,,,,,,,,
07/17/2019 19:00,464,,,,,,,,,,,,,,,,,
07/17/2019 20:00,433,,,,,,,,,,,,,,,,,
07/17/2019 21:00,393,,,,,,,,,,,,,,,,,
07/17/2019 22:00,395,,,,,,,,,,,,,,,,,
07/17/2019 23:00,352,,,,,,,,,,,,,,,,,
07/18/2019 0:00,288,,,,,,,,,,,,,,,,,
07/18/2019 1:00,254,,,,,,,,,,,,,,,,,
07/18/2019 2:00,234,,,,,,,,,,,,,,,,,
07/18/2019 3:00,220,,,,,,,,,,,,,,,,,
07/18/2019 4:00,169,,,,,,,,,,,,,,,,,
07/18/2019 5:00,195,,,,,,,,,,,,,,,,,
07/18/2019 6:00,214,,,,,,,,,,,,,,,,,
07/18/2019 7:00,256,,,,,,,,,,,,,,,,,
07/18/2019 8:00,304,,,,,,,,,,,,,,,,,
07/18/2019 9:00,387,,,,,,,,,,,,,,,,,
07/18/2019 10:00,439,,,,,,,,,,,,,,,,,
07/18/2019 11:00,474,,,,,,,,,,,,,,,,,
07/18/2019 12:00,489,,,,,,,,,,,,,,,,,
07/18/2019 13:00,482,,,,,,,,,,,,,,,,,
07/18/2019 14:00,502,,,,,,,,,,,,,,,,,
07/18/2019 15:00,537,,,,,,,,,,,,,,,,,
07/18/2019 16:00,521,,,,,,,,,,,,,,,,,
07/18/2019 17:00,540,,,,,,,,,,,,,,,,,
07/18/2019 18:00,534,,,,,,,,,,,,,,,,,
07/18/2019 19:00,514,,,,,,,,,,,,,,,,,
07/18/2019 20:00,517,,,,,,,,,,,,,,,,,
07/18/2019 21:00,525,,,,,,,,,,,,,,,,,
07/18/2019 22:00,515,,,,,,,,,,,,,,,,,
07/18/2019 23:00,456,,,,,,,,,,,,,,,,,
07/19/2019 0:00,385,,,,,,,,,,,,,,,,,
07/19/2019 1:00,330,,,,,,,,,,,,,,,,,
07/19/2019 2:00,298,,,,,,,,,,,,,,,,,
07/19/2019 3:00,277,,,,,,,,,,,,,,,,,
07/19/2019 4:00,268,,,,,,,,,,,,,,,,,
07/19/2019 5:00,261,,,,,,,,,,,,,,,,,
07/19/2019 6:00,268,,,,,,,,,,,,,,,,,
07/19/2019 7:00,300,,,,,,,,,,,,,,,,,
07/19/2019 8:00,414,,,,,,,,,,,,,,,,,
07/19/2019 9:00,501,,,,,,,,,,,,,,,,,
07/19/2019 10:00,539,,,,,,,,,,,,,,,,,
07/19/2019 11:00,557,,,,,,,,,,,,,,,,,
07/19/2019 12:00,570,,,,,,,,,,,,,,,,,
07/19/2019 13:00,570,,,,,,,,,,,,,,,,,
07/19/2019 14:00,575,,,,,,,,,,,,,,,,,
07/19/2019 15:00,558,,,,,,,,,,,,,,,,,
07/19/2019 16:00,546,,,,,,,,,,,,,,,,,
07/19/2019 17:00,541,,,,,,,,,,,,,,,,,
07/19/2019 18:00,522,,,,,,,,,,,,,,,,,
07/19/2019 19:00,509,,,,,,,,,,,,,,,,,
07/19/2019 20:00,493,,,,,,,,,,,,,,,,,
07/19/2019 21:00,450,,,,,,,,,,,,,,,,,
07/19/2019 22:00,441,,,,,,,,,,,,,,,,,
07/19/2019 23:00,421,,,,,,,,,,,,,,,,,
07/20/2019 0:00,345,,,,,,,,,,,,,,,,,
07/20/2019 1:00,271,,,,,,,,,,,,,,,,,
07/20/2019 2:00,234,,,,,,,,,,,,,,,,,
07/20/2019 3:00,206,,,,,,,,,,,,,,,,,
07/20/2019 4:00,219,,,,,,,,,,,,,,,,,
07/20/2019 5:00,254,,,,,,,,,,,,,,,,,
07/20/2019 6:00,219,,,,,,,,,,,,,,,,,
07/20/2019 7:00,218,,,,,,,,,,,,,,,,,
07/20/2019 8:00,259,,,,,,,,,,,,,,,,,
07/20/2019 9:00,305,,,,,,,,,,,,,,,,,
07/20/2019 10:00,373,,,,,,,,,,,,,,,,,
07/20/2019 11:00,453,,,,,,,,,,,,,,,,,
07/20/2019 12:00,493,,,,,,,,,,,,,,,,,
07/20/2019 13:00,499,,,,,,,,,,,,,,,,,
07/20/2019 14:00,504,,,,,,,,,,,,,,,,,
07/20/2019 15:00,511,,,,,,,,,,,,,,,,,
07/20/2019 16:00,491,,,,,,,,,,,,,,,,,
07/20/2019 17:00,465,,,,,,,,,,,,,,,,,
07/20/2019 18:00,447,,,,,,,,,,,,,,,,,
07/20/2019 19:00,451,,,,,,,,,,,,,,,,,
07/20/2019 20:00,449,,,,,,,,,,,,,,,,,
07/20/2019 21:00,449,,,,,,,,,,,,,,,,,
07/20/2019 22:00,413,,,,,,,,,,,,,,,,,
07/20/2019 23:00,340,,,,,,,,,,,,,,,,,
07/21/2019 0:00,285,,,,,,,,,,,,,,,,,
07/21/2019 1:00,267,,,,,,,,,,,,,,,,,
07/21/2019 2:00,237,,,,,,,,,,,,,,,,,
07/21/2019 3:00,217,,,,,,,,,,,,,,,,,
07/21/2019 4:00,205,,,,,,,,,,,,,,,,,
07/21/2019 5:00,201,,,,,,,,,,,,,,,,,
07/21/2019 6:00,194,,,,,,,,,,,,,,,,,
07/21/2019 7:00,239,,,,,,,,,,,,,,,,,
07/21/2019 8:00,291,,,,,,,,,,,,,,,,,
07/21/2019 9:00,301,,,,,,,,,,,,,,,,,
07/21/2019 10:00,388,,,,,,,,,,,,,,,,,
07/21/2019 11:00,439,,,,,,,,,,,,,,,,,
07/21/2019 12:00,514,,,,,,,,,,,,,,,,,
07/21/2019 13:00,521,,,,,,,,,,,,,,,,,
07/21/2019 14:00,509,,,,,,,,,,,,,,,,,
07/21/2019 15:00,524,,,,,,,,,,,,,,,,,
07/21/2019 16:00,509,,,,,,,,,,,,,,,,,
07/21/2019 17:00,515,,,,,,,,,,,,,,,,,
07/21/2019 18:00,426,,,,,,,,,,,,,,,,,
07/21/2019 19:00,447,,,,,,,,,,,,,,,,,
07/21/2019 20:00,468,,,,,,,,,,,,,,,,,
07/21/2019 21:00,435,,,,,,,,,,,,,,,,,
07/21/2019 22:00,350,,,,,,,,,,,,,,,,,
07/21/2019 23:00,325,,,,,,,,,,,,,,,,,
07/22/2019 0:00,303,,,,,,,,,,,,,,,,,
07/22/2019 1:00,295,,,,,,,,,,,,,,,,,
07/22/2019 2:00,269,,,,,,,,,,,,,,,,,
07/22/2019 3:00,256,,,,,,,,,,,,,,,,,
07/22/2019 4:00,240,,,,,,,,,,,,,,,,,
07/22/2019 5:00,247,,,,,,,,,,,,,,,,,
07/22/2019 6:00,254,,,,,,,,,,,,,,,,,
07/22/2019 7:00,271,,,,,,,,,,,,,,,,,
07/22/2019 8:00,361,,,,,,,,,,,,,,,,,
07/22/2019 9:00,455,,,,,,,,,,,,,,,,,
07/22/2019 10:00,500,,,,,,,,,,,,,,,,,
07/22/2019 11:00,533,,,,,,,,,,,,,,,,,
07/22/2019 12:00,547,,,,,,,,,,,,,,,,,
07/22/2019 13:00,550,,,,,,,,,,,,,,,,,
07/22/2019 14:00,552,,,,,,,,,,,,,,,,,
07/22/2019 15:00,555,,,,,,,,,,,,,,,,,
07/22/2019 16:00,572,,,,,,,,,,,,,,,,,
07/22/2019 17:00,575,,,,,,,,,,,,,,,,,
07/22/2019 18:00,561,,,,,,,,,,,,,,,,,
07/22/2019 19:00,528,,,,,,,,,,,,,,,,,
07/22/2019 20:00,507,,,,,,,,,,,,,,,,,
07/22/2019 21:00,517,,,,,,,,,,,,,,,,,
07/22/2019 22:00,530,,,,,,,,,,,,,,,,,
07/22/2019 23:00,498,,,,,,,,,,,,,,,,,
07/23/2019 0:00,449,,,,,,,,,,,,,,,,,
07/23/2019 1:00,375,,,,,,,,,,,,,,,,,
07/23/2019 2:00,340,,,,,,,,,,,,,,,,,
07/23/2019 3:00,340,,,,,,,,,,,,,,,,,
07/23/2019 4:00,325,,,,,,,,,,,,,,,,,
07/23/2019 5:00,321,,,,,,,,,,,,,,,,,
07/23/2019 6:00,324,,,,,,,,,,,,,,,,,
07/23/2019 7:00,360,,,,,,,,,,,,,,,,,
07/23/2019 8:00,434,,,,,,,,,,,,,,,,,
07/23/2019 9:00,449,,,,,,,,,,,,,,,,,
07/23/2019 10:00,460,,,,,,,,,,,,,,,,,
07/23/2019 11:00,498,,,,,,,,,,,,,,,,,
07/23/2019 12:00,495,,,,,,,,,,,,,,,,,
07/23/2019 13:00,520,,,,,,,,,,,,,,,,,
07/23/2019 14:00,538,,,,,,,,,,,,,,,,,
07/23/2019 15:00,557,,,,,,,,,,,,,,,,,
07/23/2019 16:00,534,,,,,,,,,,,,,,,,,
07/23/2019 17:00,508,,,,,,,,,,,,,,,,,
07/23/2019 18:00,493,,,,,,,,,,,,,,,,,
07/23/2019 19:00,467,,,,,,,,,,,,,,,,,
07/23/2019 20:00,455,,,,,,,,,,,,,,,,,
07/23/2019 21:00,435,,,,,,,,,,,,,,,,,
07/23/2019 22:00,432,,,,,,,,,,,,,,,,,
07/23/2019 23:00,415,,,,,,,,,,,,,,,,,
07/24/2019 0:00,371,,,,,,,,,,,,,,,,,
07/24/2019 1:00,327,,,,,,,,,,,,,,,,,
07/24/2019 2:00,297,,,,,,,,,,,,,,,,,
07/24/2019 3:00,288,,,,,,,,,,,,,,,,,
07/24/2019 4:00,275,,,,,,,,,,,,,,,,,
07/24/2019 5:00,273,,,,,,,,,,,,,,,,,
07/24/2019 6:00,309,,,,,,,,,,,,,,,,,
07/24/2019 7:00,340,,,,,,,,,,,,,,,,,
07/24/2019 8:00,395,,,,,,,,,,,,,,,,,
07/24/2019 9:00,400,,,,,,,,,,,,,,,,,
07/24/2019 10:00,443,,,,,,,,,,,,,,,,,
07/24/2019 11:00,451,,,,,,,,,,,,,,,,,
07/24/2019 12:00,461,,,,,,,,,,,,,,,,,
07/24/2019 13:00,470,,,,,,,,,,,,,,,,,
07/24/2019 14:00,469,,,,,,,,,,,,,,,,,
07/24/2019 15:00,460,,,,,,,,,,,,,,,,,
07/24/2019 16:00,457,,,,,,,,,,,,,,,,,
07/24/2019 17:00,480,,,,,,,,,,,,,,,,,
07/24/2019 18:00,546,,,,,,,,,,,,,,,,,
07/24/2019 19:00,543,,,,,,,,,,,,,,,,,
07/24/2019 20:00,533,,,,,,,,,,,,,,,,,
07/24/2019 21:00,522,,,,,,,,,,,,,,,,,
07/24/2019 22:00,502,,,,,,,,,,,,,,,,,
07/24/2019 23:00,435,,,,,,,,,,,,,,,,,
07/25/2019 0:00,368,,,,,,,,,,,,,,,,,
07/25/2019 1:00,285,,,,,,,,,,,,,,,,,
07/25/2019 2:00,245,,,,,,,,,,,,,,,,,
07/25/2019 3:00,210,,,,,,,,,,,,,,,,,
07/25/2019 4:00,173,,,,,,,,,,,,,,,,,
07/25/2019 5:00,163,,,,,,,,,,,,,,,,,
07/25/2019 6:00,169,,,,,,,,,,,,,,,,,
07/25/2019 7:00,258,,,,,,,,,,,,,,,,,
07/25/2019 8:00,317,,,,,,,,,,,,,,,,,
07/25/2019 9:00,372,,,,,,,,,,,,,,,,,
07/25/2019 10:00,442,,,,,,,,,,,,,,,,,
07/25/2019 11:00,519,,,,,,,,,,,,,,,,,
07/25/2019 12:00,501,,,,,,,,,,,,,,,,,
07/25/2019 13:00,505,,,,,,,,,,,,,,,,,
07/25/2019 14:00,510,,,,,,,,,,,,,,,,,
07/25/2019 15:00,516,,,,,,,,,,,,,,,,,
07/25/2019 16:00,511,,,,,,,,,,,,,,,,,
07/25/2019 17:00,504,,,,,,,,,,,,,,,,,
07/25/2019 18:00,501,,,,,,,,,,,,,,,,,
07/25/2019 19:00,490,,,,,,,,,,,,,,,,,
07/25/2019 20:00,480,,,,,,,,,,,,,,,,,
07/25/2019 21:00,465,,,,,,,,,,,,,,,,,
07/25/2019 22:00,469,,,,,,,,,,,,,,,,,
07/25/2019 23:00,450,,,,,,,,,,,,,,,,,
07/26/2019 0:00,392,,,,,,,,,,,,,,,,,
07/26/2019 1:00,324,,,,,,,,,,,,,,,,,
07/26/2019 2:00,320,,,,,,,,,,,,,,,,,
07/26/2019 3:00,294,,,,,,,,,,,,,,,,,
07/26/2019 4:00,274,,,,,,,,,,,,,,,,,
07/26/2019 5:00,258,,,,,,,,,,,,,,,,,
07/26/2019 6:00,269,,,,,,,,,,,,,,,,,
07/26/2019 7:00,290,,,,,,,,,,,,,,,,,
07/26/2019 8:00,309,,,,,,,,,,,,,,,,,
07/26/2019 9:00,381,,,,,,,,,,,,,,,,,
07/26/2019 10:00,448,,,,,,,,,,,,,,,,,
07/26/2019 11:00,462,,,,,,,,,,,,,,,,,
07/26/2019 12:00,464,,,,,,,,,,,,,,,,,
07/26/2019 13:00,479,,,,,,,,,,,,,,,,,
07/26/2019 14:00,492,,,,,,,,,,,,,,,,,
07/26/2019 15:00,511,,,,,,,,,,,,,,,,,
07/26/2019 16:00,528,,,,,,,,,,,,,,,,,
07/26/2019 17:00,477,,,,,,,,,,,,,,,,,
07/26/2019 18:00,454,,,,,,,,,,,,,,,,,
07/26/2019 19:00,447,,,,,,,,,,,,,,,,,
07/26/2019 20:00,439,,,,,,,,,,,,,,,,,